Tracking 17886 objects as of 9-December-2016
HD Live streaming from Space Station
objects crossing your sky now

IRIDIUM 33 DEB

Track IRIDIUM 33 DEB now!
10-day predictions


NORAD ID: 34150
Int'l Code: 1997-051ED
Perigee: 666.2 km
Apogee: 785.9 km
Inclination: 86.5 °
Period: 99.2 minutes
Semi major axis: 7097 km
RCS: 0.0227 m2 (small)
Launch date: September 14, 1997
Source: United States (US)
Launch site: TYURATAM MISSILE AND SPACE COMPLEX (TTMTR)

Note: This is SATELLITE DEBRIS
Your satellite tracking list
Your tracking list is empty





NASA's NSSDC Master Catalog

Two Line Element Set (TLE):
1 34150U 97051ED  16343.91793633  .00006459  00000-0  15193-2 0  9998
2 34150  86.4800  46.4730 0084307 198.1395 215.3873 14.52067779408697
Source of the keplerian elements: AFSPC